Bardufoss, Norja

21. lokakuuta 2018 klo 09:04 (CEST) (GMT +0200)
Bardufoss Air Base | | Change Station

Kork 259 ft 69.05 °N, 18.55 °E | Updated 44 minutes ago

Light Rain
Kevyttä sadetta
48 °F
Tuntuu kuin 48 °F
N
10
Tuuli Suunnaltaan vaihteleva Tuuli ilmansuunnasta Lounas

Tänään
Korkea -- | Matala -- °F
--% Sateen mahd.
Eilen
Korkea -- | Matala -- °F
Precip. -- tuumaa
Ilmanpaine 29.27 tuumaa
Näkyvyys 6.2 mailia
Pilviä
Kastepiste 36 °F
Ilmankosteus 62%
Sademäärä 0.00 tuumaa
Lumensyvyys Ei saatavilla
8:17 AM 4:41 PM
Kasvava kupera kuu, 88% visible
METAR ENDU 210620Z AUTO 22009KT 180V280 9999 -RA ///028/// 09/02 Q0991 REDZ RMK
Ilmanpaine 29.27 tuumaa
Näkyvyys 6.2 mailia
Pilviä
Kastepiste 36 °F
Ilmankosteus 62%
Sademäärä 0.00 tuumaa
Lumensyvyys Ei saatavilla
8:17 AM 4:41 PM
Kasvava kupera kuu, 88% visible
METAR ENDU 210620Z AUTO 22009KT 180V280 9999 -RA ///028/// 09/02 Q0991 REDZ RMK

Get Severe Weather Alerts

Thanks for signing up!

Be on the lookout for a verification email in your inbox.

You'll start receiving the daily forecast at 6 AM.

×

10-Day Weather Forecast

×

Almanac

Tähtitiede

Oct. 21, 2018 Nousuaika Laskuaika
Valoisa aika
Porvarillinen hämärä
Nauttinen hämärä
Astronominen hämärä
Kuu
Näkyvän valon pituus
Päivän pituus
Tomorrow will be .
, % of the Moon is Illuminated

Tämän päivän ennätykset

Country Highs Country Lows

Community

WunderPhotos

Category 6

Welcome to Category 6. This is the collective home for Weather Underground's featured writeups by Dr. Jeff Masters (right), Bob Henson (left), Chris Burt, and other regular contributors.

Nearby

Ilmanlaatu

  Ilmanlaatu AQ Index Pollutant
Not available.

Lumensyvyys

Station Depth Korkeus

Maanjäristysaktiivisuus

Paikkakunta Distance Mag. Time & Date
Minimum magnitude displayed is 2.5.

Coastal Water Temperatures

Paikka Lämpötila

Stations

Lähimmät sääasemat

Aseman sijainti Lämpötila Tuulen hyytävyys Kastepiste Ilmankosteus Tuuli Precip. Kork Päivitetty Tyyppi